DateTimeUTC,F1_A11,F1_S11,BsB_S11,BsG_S11,BsR_S11,BbsB_S11,BbsG_S11,BbsR_S11,BaB_A11,BaG_A11,BaR_A11,Tu_S11,T_S11,Uu_S11,U_S11,P_S11,T1_A11
2021-08-20T21:00:00Z,00000200,20000000,,,,,,,0000.23,0000.07,0000.15,19.6,26.4,07.2,04.8,0676.5,31.1
2021-08-20T21:01:00Z,00000200,20000000,,,,,,,-000.11,0000.00,-000.12,19.5,26.4,07.3,04.8,0676.5,31.1
2021-08-20T21:02:00Z,00000200,20000000,,,,,,,-000.03,-000.23,0000.16,19.5,26.4,07.1,04.7,0676.5,31.1
2021-08-20T21:03:00Z,00000200,60000000,,,,,,,0000.01,0000.31,0000.18,19.5,26.5,07.0,04.6,0676.5,31.1
2021-08-20T21:04:00Z,00000200,40000000,0000.35,0000.73,0000.59,-000.21,-000.08,0000.11,0000.06,-000.00,0000.18,19.6,26.3,07.0,04.7,0677.5,31.1
2021-08-20T21:05:00Z,00000200,00000000,0001.30,0000.24,0000.42,0000.28,-000.15,0000.00,-000.04,0000.14,-000.29,19.7,26.2,06.9,04.6,0677.6,31.1
2021-08-20T21:06:00Z,00000200,00000000,0000.66,0000.56,0000.60,-000.23,-000.05,0000.43,0000.40,-000.24,-000.03,19.7,26.2,06.9,04.6,0677.6,31.1
2021-08-20T21:07:00Z,00000200,00000000,0000.73,0000.52,0000.31,0000.49,-000.06,0000.07,0000.08,0000.33,0000.28,19.7,26.2,06.9,04.7,0677.6,31.1
2021-08-20T21:08:00Z,00000200,00000000,0000.94,0000.46,0000.61,-000.11,-000.34,0000.01,0000.14,0000.07,0000.37,19.7,26.2,06.8,04.6,0677.6,31.1
2021-08-20T21:09:00Z,00000200,00000000,0000.65,0000.63,0000.43,-000.10,0000.21,0000.25,-000.15,0000.35,0000.23,19.7,26.2,06.8,04.6,0677.6,31.1
2021-08-20T21:10:00Z,00000200,00000000,0000.11,0000.22,0000.14,0000.27,-000.15,0000.34,0000.33,0000.02,-000.01,19.7,26.2,06.7,04.5,0677.6,31.1
2021-08-20T21:11:00Z,00000200,00000000,0000.08,0000.25,-000.02,0000.06,-000.39,0000.23,-000.07,0000.20,-000.19,19.7,26.1,06.8,04.6,0677.6,31.1
2021-08-20T21:12:00Z,00000200,00000000,0000.37,0000.27,0000.12,-000.03,-000.19,0000.32,0000.30,-000.17,-000.36,19.7,26.2,06.8,04.6,0677.6,31.1
2021-08-20T21:13:00Z,00000200,00000000,0000.72,0000.71,0000.28,0000.90,0000.01,0000.40,0000.03,0000.06,0000.45,19.7,26.1,06.7,04.5,0677.6,31.1
2021-08-20T21:14:00Z,00000200,00000000,0000.90,0000.47,0000.30,0000.19,-000.13,-000.09,-000.23,-000.10,-000.32,19.7,26.1,06.7,04.6,0677.6,31.1
2021-08-20T21:15:00Z,00000200,00000000,0000.21,0000.61,-000.01,0000.58,-000.20,0000.44,0000.29,0000.36,0000.50,19.7,26.1,06.7,04.5,0677.6,31.1
2021-08-20T21:16:00Z,00000200,00000000,0000.43,0000.28,0000.04,0000.06,0000.25,-000.04,0000.16,0000.04,-000.19,19.6,26.1,06.7,04.5,0677.6,31.1
2021-08-20T21:17:00Z,00000200,00000000,0000.16,-000.06,0000.19,0000.61,-000.17,0000.03,0000.05,0000.24,-000.06,19.6,26.1,06.6,04.5,0677.7,31.1
2021-08-20T21:18:00Z,00000200,00000000,-000.00,0000.47,-000.05,0000.19,0000.00,-000.06,0000.03,-000.11,0000.14,19.6,26.1,06.6,04.5,0677.6,31.1
2021-08-20T21:19:00Z,00000200,00000000,0000.27,0000.74,0000.07,0000.02,0000.05,0000.04,-000.07,-000.11,-000.10,19.6,26.1,06.6,04.4,0677.6,31.1
2021-08-20T21:20:00Z,00000200,00000000,0000.10,0000.65,0000.36,0000.06,-000.22,0000.29,0000.15,-000.01,0000.32,19.6,26.1,06.6,04.5,0677.6,31.1
2021-08-20T21:21:00Z,00000200,00000000,0000.47,0000.34,0000.08,0000.88,-000.20,0000.33,0000.07,0000.14,-000.13,19.6,26.1,06.5,04.4,0677.6,31.1
2021-08-20T21:22:00Z,00000200,00000000,0001.00,0000.43,0000.16,-000.51,0000.05,0000.02,0000.11,0000.23,0000.06,19.6,26.1,06.5,04.4,0677.6,31.1
2021-08-20T21:23:00Z,00000200,00000000,0000.30,0000.18,0000.18,0000.23,0000.02,0000.16,-000.09,-000.22,0000.05,19.6,26.1,06.5,04.4,0677.6,31.1
2021-08-20T21:24:00Z,00000200,00000000,-000.05,0000.35,0000.50,0000.22,-000.33,0000.07,-000.06,0000.20,-000.24,19.6,26.1,06.4,04.3,0677.6,31.1
2021-08-20T21:25:00Z,00000200,00000000,0000.39,0000.28,0000.07,0000.26,-000.14,0000.05,0000.49,0000.28,0000.55,19.6,26.1,06.4,04.3,0677.6,31.1
2021-08-20T21:26:00Z,00000200,00000000,-000.66,0000.21,-000.02,-000.60,0000.04,0000.05,-000.43,-000.22,-000.06,19.6,26.1,06.4,04.3,0677.6,31.1
2021-08-20T21:27:00Z,00000200,00000000,0000.28,0000.16,-000.25,-000.17,-000.18,0000.05,0000.05,-000.02,0000.08,19.6,26.1,06.4,04.3,0677.6,31.1
2021-08-20T21:28:00Z,00000200,00000000,0000.03,0000.38,-000.15,-000.45,-000.07,0000.10,0000.15,0000.28,0000.07,19.6,26.1,06.4,04.3,0677.6,31.1
2021-08-20T21:29:00Z,00000200,00000000,0001.16,0000.47,-000.10,-000.06,0000.26,0000.16,0000.29,-000.25,-000.06,19.6,26.0,06.3,04.3,0677.6,31.1
2021-08-20T21:30:00Z,00000200,00000000,0000.50,0000.11,0000.45,-000.07,0000.01,0000.36,-000.13,0000.05,0000.05,19.6,26.1,06.3,04.3,0677.6,31.1
2021-08-20T21:31:00Z,00000200,00000000,0000.58,0000.18,0000.47,0000.30,-000.35,0000.23,0000.01,0000.03,-000.10,19.6,26.0,06.3,04.2,0677.6,31.1
2021-08-20T21:32:00Z,00000200,00000000,0000.29,-000.40,-000.30,0000.14,0000.04,-000.02,0000.03,-000.29,0000.17,19.6,26.0,06.3,04.2,0677.6,31.1
2021-08-20T21:33:00Z,00000200,00000000,-000.34,-000.08,-000.25,-000.04,-000.27,-000.15,-000.09,0000.15,-000.20,19.5,26.0,06.2,04.2,0677.6,31.1
2021-08-20T21:34:00Z,00000200,00000000,-000.38,0000.22,-000.09,-000.31,-000.07,0000.02,-000.14,0000.18,-000.06,19.5,26.0,06.1,04.1,0677.6,31.1
2021-08-20T21:35:00Z,00000200,00000000,0000.29,0000.13,0000.05,0000.02,-000.25,-000.10,0000.09,-000.11,-000.21,19.5,26.0,06.2,04.2,0677.7,31.1
2021-08-20T21:36:00Z,00000200,00000000,0000.47,0000.37,0000.32,0000.68,-000.15,-000.07,-000.24,-000.40,0000.05,19.5,26.0,06.0,04.0,0677.6,31.1
2021-08-20T21:37:00Z,00000200,00000000,0000.69,0000.25,-000.19,-000.18,-000.14,0000.30,-000.17,-000.02,0000.25,19.5,26.0,05.9,04.0,0677.6,31.1
2021-08-20T21:38:00Z,00000200,00000000,0000.13,-000.01,0000.09,-000.68,-000.36,-000.20,-000.24,-000.12,-000.57,19.5,26.0,05.9,04.0,0677.6,31.1
2021-08-20T21:39:00Z,00000200,00000000,0000.36,0000.05,0000.12,0000.33,-000.42,0000.22,0000.20,0000.27,0000.35,19.5,26.0,05.8,03.9,0677.6,31.1
2021-08-20T21:40:00Z,00000200,00000000,-000.28,0000.27,-000.02,-000.06,0000.02,0000.05,0000.43,0000.12,0000.13,19.5,26.0,06.1,04.1,0677.6,31.1
2021-08-20T21:41:00Z,00000200,00000000,-000.47,-000.19,0000.35,-000.44,-000.22,0000.10,0000.03,-000.01,-000.01,19.5,26.0,06.1,04.1,0677.6,31.1
2021-08-20T21:42:00Z,00000200,00000000,0000.72,0000.22,0000.10,0000.60,-000.07,0000.27,-000.39,-000.34,-000.41,19.5,26.0,05.9,04.0,0677.6,31.1
2021-08-20T21:43:00Z,00000200,00000000,0000.29,0000.44,0000.20,0000.42,-000.40,0000.15,-000.14,0000.18,0000.19,19.5,26.0,05.7,03.9,0677.6,31.1
2021-08-20T21:44:00Z,00000200,00000000,0000.53,0000.17,0000.13,-000.15,-000.05,0000.04,0000.23,-000.16,0000.14,19.5,26.0,05.7,03.8,0677.6,31.1
2021-08-20T21:45:00Z,00000200,00000000,-000.10,0000.31,0000.25,0000.60,-000.09,0000.26,-000.79,-000.25,-000.53,19.5,26.0,05.6,03.7,0677.6,31.1
2021-08-20T21:46:00Z,00000200,00000000,0000.04,0000.05,-000.13,-000.35,-000.27,0000.11,0000.43,-000.10,0000.13,19.5,26.0,05.5,03.7,0677.6,31.1
2021-08-20T21:47:00Z,00000200,00000000,0000.50,0000.20,0000.00,-000.34,-000.02,-000.06,0000.26,0000.52,0000.26,19.5,26.0,05.6,03.8,0677.6,31.1
2021-08-20T21:48:00Z,00000200,00000000,-000.07,-000.10,0000.05,0000.43,-000.17,0000.10,0000.31,-000.03,0000.16,19.5,26.0,05.7,03.8,0677.6,31.1
2021-08-20T21:49:00Z,00000200,00000000,0000.77,0000.17,-000.02,0000.35,-000.32,0000.27,0000.10,0000.19,0000.27,19.5,26.0,05.8,03.9,0677.6,31.1
2021-08-20T21:50:00Z,00000200,00000000,0000.14,0000.22,0000.05,0000.53,0000.21,0000.16,0000.10,-000.05,-000.43,19.5,26.0,05.9,03.9,0677.6,31.1
2021-08-20T21:51:00Z,00000200,00000000,0000.34,0000.26,0000.32,0000.36,0000.00,0000.29,0000.05,0000.27,0000.35,19.4,26.0,05.9,04.0,0677.6,31.1
2021-08-20T21:52:00Z,00000200,00000000,0001.03,0000.46,-000.07,0000.43,0000.05,0000.26,-000.17,-000.10,-000.13,19.4,26.0,06.0,04.1,0677.6,31.1
2021-08-20T21:53:00Z,00000200,00000000,0000.01,0000.19,0000.42,0000.18,0000.19,0000.33,-000.04,-000.08,0000.55,19.4,26.0,05.9,03.9,0677.6,31.1
2021-08-20T21:54:00Z,00000200,00000000,0000.24,0000.24,0000.05,0000.15,-000.41,0000.14,0000.01,0000.16,-000.42,19.4,25.9,05.7,03.9,0677.6,31.1
2021-08-20T21:55:00Z,00000200,00000000,-000.11,0000.11,-000.16,0000.16,-000.08,-000.04,-000.04,0000.07,-000.29,19.4,25.9,05.8,03.9,0677.6,31.1
2021-08-20T21:56:00Z,00000200,00000000,0000.03,0000.25,0000.31,0000.41,0000.04,-000.19,0000.07,-000.66,0000.21,19.4,25.9,05.8,03.9,0677.6,31.1
2021-08-20T21:57:00Z,00000200,40000000,,,,,,,0000.55,0001.07,0000.58,19.4,25.9,06.1,04.1,0677.7,31.1
2021-08-20T21:58:00Z,00000200,60000000,,,,,,,-000.45,-000.32,-000.46,19.1,26.1,06.2,04.0,0676.6,31.1
2021-08-20T21:59:00Z,00000200,20000000,,,,,,,0000.02,0000.08,0000.06,19.1,26.2,06.0,03.9,0676.6,31.1
